Track ESSA 3 (TOS-A) now! 10-day predictions ESSA 3 (TOS-A) is classified as:
1 2435U 66087A 22224.49845062 -.00000041 00000-0 -25405-5 0 9999 2 2435 100.9681 193.5135 0063780 325.2652 152.3631 12.56849060562912